Time,TemperatureF,DewpointF,PressureIn,WindDirection,WindDirectionDegrees,WindSpeedMPH,WindSpeedGustMPH,Humidity,HourlyPrecipIn,Conditions,Clouds,dailyrainin,SoftwareType,DateUTC
2013-01-10 00:02:00,23.0,16.0,-100.00,ESE,115,6.0,9.0,72,0.00,,,0.00,,2013-01-10 06:02:00,
2013-01-10 00:11:00,23.0,16.0,-100.00,ESE,115,7.0,9.0,72,0.00,,,0.00,,2013-01-10 06:11:00,
2013-01-10 00:22:00,23.0,16.0,-100.00,ESE,115,7.0,9.0,74,0.00,,,0.00,,2013-01-10 06:22:00,
2013-01-10 00:32:00,23.0,16.0,-100.00,ESE,120,7.0,10.0,74,0.00,,,0.00,,2013-01-10 06:32:00,
2013-01-10 00:42:00,23.0,16.0,-100.00,SE,130,7.0,11.0,75,0.00,,,0.00,,2013-01-10 06:42:00,
2013-01-10 00:52:00,24.0,18.0,-100.00,SE,125,7.0,11.0,75,0.00,,,0.00,,2013-01-10 06:52:00,
2013-01-10 01:02:00,24.0,18.0,-100.00,SE,130,7.0,11.0,75,0.00,,,0.00,,2013-01-10 07:02:00,
2013-01-10 01:12:00,24.0,18.0,-100.00,SE,125,7.0,12.0,75,0.00,,,0.00,,2013-01-10 07:12:00,
2013-01-10 01:22:00,24.0,18.0,-100.00,ESE,115,9.0,13.0,76,0.00,,,0.00,,2013-01-10 07:22:00,
2013-01-10 01:32:00,24.0,18.0,-100.00,SE,140,7.0,12.0,75,0.00,,,0.00,,2013-01-10 07:32:00,
2013-01-10 01:42:00,24.0,18.0,-100.00,SE,130,7.0,11.0,76,0.00,,,0.00,,2013-01-10 07:42:00,
2013-01-10 01:52:00,24.0,18.0,-100.00,SE,130,5.0,9.0,76,0.00,,,0.00,,2013-01-10 07:52:00,
2013-01-10 02:01:00,24.0,18.0,-100.00,SE,135,6.0,12.0,77,0.00,,,0.00,,2013-01-10 08:01:00,
2013-01-10 02:11:00,24.0,18.0,-100.00,SE,130,7.0,9.0,77,0.00,,,0.00,,2013-01-10 08:11:00,
2013-01-10 02:22:00,24.0,19.0,-100.00,SE,130,7.0,9.0,78,0.00,,,0.00,,2013-01-10 08:22:00,
2013-01-10 02:32:00,24.0,19.0,-100.00,ESE,120,7.0,12.0,78,0.00,,,0.00,,2013-01-10 08:32:00,
2013-01-10 02:42:00,25.0,19.0,-100.00,SE,135,7.0,12.0,79,0.00,,,0.00,,2013-01-10 08:42:00,
2013-01-10 02:52:00,25.0,19.0,-100.00,ESE,120,7.0,12.0,79,0.00,,,0.00,,2013-01-10 08:52:00,
2013-01-10 03:02:00,25.0,19.0,-100.00,ESE,120,8.0,11.0,80,0.00,,,0.00,,2013-01-10 09:02:00,
2013-01-10 03:12:00,25.0,19.0,-100.00,ESE,120,7.0,11.0,80,0.00,,,0.00,,2013-01-10 09:12:00,
2013-01-10 03:22:00,25.0,19.0,-100.00,ESE,115,7.0,11.0,81,0.00,,,0.00,,2013-01-10 09:22:00,
2013-01-10 03:32:00,25.0,19.0,-100.00,ESE,120,8.0,11.0,81,0.00,,,0.00,,2013-01-10 09:32:00,
2013-01-10 03:42:00,25.0,21.0,-100.00,SE,125,9.0,12.0,81,0.00,,,0.00,,2013-01-10 09:42:00,
2013-01-10 03:52:00,25.0,19.0,-100.00,ESE,120,7.0,12.0,82,0.00,,,0.00,,2013-01-10 09:52:00,
2013-01-10 04:02:00,25.0,21.0,-100.00,SSE,150,7.0,9.0,82,0.00,,,0.00,,2013-01-10 10:02:00,
2013-01-10 04:12:00,29.0,23.0,-100.00,South,175,11.0,19.0,78,0.00,,,0.00,,2013-01-10 10:12:00,
2013-01-10 04:22:00,31.0,23.0,-100.00,South,175,13.0,21.0,75,0.00,,,0.00,,2013-01-10 10:22:00,
2013-01-10 04:32:00,31.0,23.0,-100.00,South,175,8.0,21.0,73,0.00,,,0.00,,2013-01-10 10:32:00,
2013-01-10 04:42:00,32.0,25.0,-100.00,SSE,155,14.0,24.0,71,0.00,,,0.00,,2013-01-10 10:42:00,
2013-01-10 04:52:00,32.0,23.0,-100.00,SSE,165,12.0,29.0,71,0.00,,,0.00,,2013-01-10 10:52:00,
2013-01-10 05:02:00,32.0,23.0,-100.00,SSE,160,13.0,21.0,71,0.00,,,0.00,,2013-01-10 11:02:00,
2013-01-10 05:12:00,32.0,23.0,-100.00,South,175,11.0,19.0,71,0.00,,,0.00,,2013-01-10 11:12:00,
2013-01-10 05:22:00,32.0,23.0,-100.00,SSE,155,11.0,22.0,71,0.00,,,0.00,,2013-01-10 11:22:00,
2013-01-10 05:32:00,33.0,25.0,-100.00,SSE,165,12.0,17.0,70,0.00,,,0.00,,2013-01-10 11:32:00,
2013-01-10 05:42:00,33.0,25.0,-100.00,South,175,13.0,21.0,68,0.00,,,0.00,,2013-01-10 11:42:00,
2013-01-10 05:52:00,33.0,25.0,-100.00,South,170,12.0,17.0,69,0.00,,,0.00,,2013-01-10 11:52:00,
2013-01-10 06:02:00,33.0,25.0,-100.00,South,175,9.0,17.0,69,0.00,,,0.00,,2013-01-10 12:02:00,
2013-01-10 06:12:00,33.0,25.0,-100.00,South,180,10.0,18.0,69,0.00,,,0.00,,2013-01-10 12:12:00,
2013-01-10 06:22:00,34.0,25.0,-100.00,South,175,11.0,17.0,68,0.00,,,0.00,,2013-01-10 12:22:00,
2013-01-10 06:32:00,34.0,25.0,-100.00,South,170,11.0,21.0,67,0.00,,,0.00,,2013-01-10 12:32:00,
2013-01-10 06:42:00,34.0,25.0,-100.00,South,190,9.0,19.0,68,0.00,,,0.00,,2013-01-10 12:42:00,
2013-01-10 06:52:00,34.0,25.0,-100.00,South,180,9.0,24.0,68,0.00,,,0.00,,2013-01-10 12:52:00,
2013-01-10 07:02:00,34.0,25.0,-100.00,South,180,11.0,22.0,68,0.00,,,0.00,,2013-01-10 13:02:00,
2013-01-10 07:12:00,34.0,25.0,-100.00,SSE,165,11.0,17.0,67,0.00,,,0.00,,2013-01-10 13:12:00,
2013-01-10 07:22:00,34.0,25.0,-100.00,South,190,14.0,20.0,67,0.00,,,0.00,,2013-01-10 13:22:00,
2013-01-10 07:32:00,34.0,25.0,-100.00,South,185,13.0,20.0,67,0.00,,,0.00,,2013-01-10 13:32:00,
2013-01-10 07:42:00,34.0,25.0,-100.00,South,180,12.0,22.0,67,0.00,,,0.00,,2013-01-10 13:42:00,
2013-01-10 07:52:00,34.0,25.0,-100.00,South,170,10.0,19.0,68,0.00,,,0.00,,2013-01-10 13:52:00,
2013-01-10 08:02:00,34.0,25.0,-100.00,South,180,12.0,19.0,68,0.00,,,0.00,,2013-01-10 14:02:00,
2013-01-10 08:12:00,34.0,25.0,-100.00,South,175,12.0,19.0,67,0.00,,,0.00,,2013-01-10 14:12:00,
2013-01-10 08:22:00,34.0,25.0,-100.00,South,175,14.0,21.0,68,0.00,,,0.00,,2013-01-10 14:22:00,
2013-01-10 08:32:00,34.0,25.0,-100.00,SSE,165,12.0,18.0,69,0.00,,,0.00,,2013-01-10 14:32:00,
2013-01-10 08:43:00,34.0,25.0,-100.00,South,170,14.0,19.0,69,0.00,,,0.00,,2013-01-10 14:43:00,
2013-01-10 08:53:00,35.0,25.0,-100.00,SSE,165,12.0,23.0,68,0.00,,,0.00,,2013-01-10 14:53:00,
2013-01-10 09:03:00,35.0,25.0,-100.00,South,175,11.0,19.0,68,0.00,,,0.00,,2013-01-10 15:03:00,
2013-01-10 09:12:00,35.0,25.0,-100.00,South,170,12.0,17.0,67,0.00,,,0.00,,2013-01-10 15:12:00,
2013-01-10 09:22:00,36.0,25.0,-100.00,South,180,12.0,19.0,65,0.00,,,0.00,,2013-01-10 15:22:00,
2013-01-10 09:32:00,36.0,25.0,-100.00,South,185,12.0,17.0,64,0.00,,,0.00,,2013-01-10 15:32:00,
2013-01-10 09:43:00,37.0,25.0,-100.00,South,170,12.0,20.0,61,0.00,,,0.00,,2013-01-10 15:43:00,
2013-01-10 09:53:00,38.0,25.0,-100.00,South,175,10.0,22.0,59,0.00,,,0.00,,2013-01-10 15:53:00,
2013-01-10 10:02:00,38.0,25.0,-100.00,South,185,12.0,23.0,57,0.00,,,0.00,,2013-01-10 16:02:00,
2013-01-10 10:12:00,39.0,25.0,-100.00,South,180,14.0,22.0,55,0.00,,,0.00,,2013-01-10 16:12:00,
2013-01-10 10:22:00,39.0,25.0,-100.00,South,170,14.0,22.0,54,0.00,,,0.00,,2013-01-10 16:22:00,
2013-01-10 10:33:00,40.0,25.0,-100.00,SSE,165,15.0,28.0,53,0.00,,,0.00,,2013-01-10 16:33:00,
2013-01-10 10:42:00,40.0,25.0,-100.00,South,190,12.0,24.0,53,0.00,,,0.00,,2013-01-10 16:42:00,
2013-01-10 10:52:00,41.0,23.0,-100.00,South,180,14.0,21.0,50,0.00,,,0.00,,2013-01-10 16:52:00,
2013-01-10 11:03:00,41.0,23.0,-100.00,South,180,16.0,26.0,49,0.00,,,0.00,,2013-01-10 17:03:00,
2013-01-10 11:12:00,41.0,23.0,-100.00,South,170,19.0,26.0,48,0.00,,,0.00,,2013-01-10 17:12:00,
2013-01-10 11:22:00,41.0,23.0,-100.00,South,190,17.0,26.0,48,0.00,,,0.00,,2013-01-10 17:22:00,
2013-01-10 11:33:00,41.0,23.0,-100.00,South,190,16.0,30.0,47,0.00,,,0.00,,2013-01-10 17:33:00,
2013-01-10 11:42:00,42.0,23.0,-100.00,SSW,195,17.0,27.0,46,0.00,,,0.00,,2013-01-10 17:42:00,
2013-01-10 11:53:00,42.0,23.0,-100.00,South,175,13.0,28.0,46,0.00,,,0.00,,2013-01-10 17:53:00,
2013-01-10 12:03:00,42.0,23.0,-100.00,South,180,17.0,25.0,45,0.00,,,0.00,,2013-01-10 18:03:00,
2013-01-10 12:12:00,42.0,21.0,-100.00,South,175,15.0,26.0,44,0.00,,,0.00,,2013-01-10 18:12:00,
2013-01-10 12:23:00,42.0,21.0,-100.00,South,180,12.0,24.0,44,0.00,,,0.00,,2013-01-10 18:23:00,
2013-01-10 12:33:00,42.0,21.0,-100.00,South,175,15.0,25.0,43,0.00,,,0.00,,2013-01-10 18:33:00,
2013-01-10 12:43:00,42.0,21.0,-100.00,South,175,17.0,26.0,42,0.00,,,0.00,,2013-01-10 18:43:00,
2013-01-10 12:52:00,42.0,21.0,-100.00,South,175,14.0,29.0,42,0.00,,,0.00,,2013-01-10 18:52:00,
2013-01-10 13:03:00,42.0,21.0,-100.00,SSE,165,14.0,22.0,42,0.00,,,0.00,,2013-01-10 19:03:00,
2013-01-10 13:12:00,42.0,21.0,-100.00,SSE,165,11.0,22.0,42,0.00,,,0.00,,2013-01-10 19:12:00,
2013-01-10 13:23:00,42.0,21.0,-100.00,SSE,165,16.0,22.0,42,0.00,,,0.00,,2013-01-10 19:23:00,
2013-01-10 13:33:00,42.0,21.0,-100.00,South,175,16.0,27.0,41,0.00,,,0.00,,2013-01-10 19:33:00,
2013-01-10 13:43:00,43.0,21.0,-100.00,South,175,16.0,24.0,40,0.00,,,0.00,,2013-01-10 19:43:00,
2013-01-10 13:52:00,43.0,21.0,-100.00,South,170,16.0,26.0,40,0.00,,,0.00,,2013-01-10 19:52:00,
2013-01-10 14:02:00,43.0,19.0,-100.00,SSE,160,16.0,26.0,39,0.00,,,0.00,,2013-01-10 20:02:00,
2013-01-10 14:12:00,43.0,19.0,-100.00,South,170,14.0,26.0,39,0.00,,,0.00,,2013-01-10 20:12:00,
2013-01-10 14:23:00,43.0,19.0,-100.00,SSE,150,11.0,18.0,38,0.00,,,0.00,,2013-01-10 20:23:00,
2013-01-10 14:33:00,43.0,19.0,-100.00,South,170,12.0,20.0,38,0.00,,,0.00,,2013-01-10 20:33:00,
2013-01-10 14:42:00,43.0,18.0,-100.00,South,170,16.0,26.0,36,0.00,,,0.00,,2013-01-10 20:42:00,
2013-01-10 14:53:00,43.0,18.0,-100.00,South,175,14.0,23.0,35,0.00,,,0.00,,2013-01-10 20:53:00,
2013-01-10 15:03:00,43.0,18.0,-100.00,SSE,160,13.0,19.0,35,0.00,,,0.00,,2013-01-10 21:03:00,
2013-01-10 15:12:00,43.0,18.0,-100.00,South,170,15.0,21.0,35,0.00,,,0.00,,2013-01-10 21:12:00,
2013-01-10 15:23:00,42.0,18.0,-100.00,South,170,7.0,12.0,36,0.00,,,0.00,,2013-01-10 21:23:00,
2013-01-10 15:33:00,42.0,18.0,-100.00,South,175,7.0,16.0,36,0.00,,,0.00,,2013-01-10 21:33:00,
2013-01-10 15:42:00,42.0,16.0,-100.00,SSE,165,14.0,24.0,35,0.00,,,0.00,,2013-01-10 21:42:00,
2013-01-10 15:52:00,42.0,16.0,-100.00,SSE,165,9.0,23.0,35,0.00,,,0.00,,2013-01-10 21:52:00,
2013-01-10 16:03:00,42.0,16.0,-100.00,SE,135,7.0,15.0,35,0.00,,,0.00,,2013-01-10 22:03:00,
2013-01-10 16:12:00,41.0,16.0,-100.00,South,175,13.0,24.0,34,0.00,,,0.00,,2013-01-10 22:12:00,
2013-01-10 16:25:00,41.0,16.0,-100.00,SSE,160,10.0,17.0,35,0.00,,,0.00,,2013-01-10 22:25:00,
2013-01-10 16:33:00,41.0,16.0,-100.00,SE,140,11.0,23.0,35,0.00,,,0.00,,2013-01-10 22:33:00,
2013-01-10 17:02:00,40.0,14.0,-100.00,SSE,155,9.0,20.0,34,0.00,,,0.00,,2013-01-10 23:02:00,
2013-01-10 17:12:00,40.0,14.0,-100.00,SSE,155,9.0,16.0,34,0.00,,,0.00,,2013-01-10 23:12:00,
2013-01-10 17:22:00,40.0,14.0,-100.00,SSE,150,11.0,17.0,34,0.00,,,0.00,,2013-01-10 23:22:00,
2013-01-10 17:33:00,39.0,14.0,-100.00,SSE,160,12.0,24.0,34,0.00,,,0.00,,2013-01-10 23:33:00,
2013-01-10 17:42:00,39.0,14.0,-100.00,South,170,11.0,20.0,35,0.00,,,0.00,,2013-01-10 23:42:00,
2013-01-10 17:53:00,39.0,14.0,-100.00,SE,145,7.0,17.0,35,0.00,,,0.00,,2013-01-10 23:53:00,
2013-01-10 18:02:00,39.0,16.0,-100.00,SE,125,6.0,17.0,36,0.00,,,0.00,,2013-01-11 00:02:00,
2013-01-10 18:12:00,39.0,16.0,-100.00,SSE,150,7.0,17.0,37,0.00,,,0.00,,2013-01-11 00:12:00,
2013-01-10 18:23:00,39.0,16.0,-100.00,SSE,155,7.0,16.0,38,0.00,,,0.00,,2013-01-11 00:23:00,
2013-01-10 18:33:00,38.0,16.0,-100.00,SE,125,6.0,15.0,40,0.00,,,0.00,,2013-01-11 00:33:00,
2013-01-10 18:42:00,38.0,16.0,-100.00,SE,130,7.0,14.0,41,0.00,,,0.00,,2013-01-11 00:42:00,
2013-01-10 18:52:00,37.0,18.0,-100.00,SE,130,6.0,14.0,43,0.00,,,0.00,,2013-01-11 00:52:00,
2013-01-10 19:03:00,37.0,18.0,-100.00,SE,130,7.0,12.0,44,0.00,,,0.00,,2013-01-11 01:03:00,
2013-01-10 19:12:00,37.0,18.0,-100.00,SE,135,9.0,14.0,44,0.00,,,0.00,,2013-01-11 01:12:00,
2013-01-10 19:22:00,37.0,18.0,-100.00,SE,135,9.0,16.0,45,0.00,,,0.00,,2013-01-11 01:22:00,
2013-01-10 19:33:00,37.0,18.0,-100.00,ESE,120,9.0,15.0,46,0.00,,,0.00,,2013-01-11 01:33:00,
2013-01-10 19:43:00,37.0,18.0,-100.00,SE,135,11.0,19.0,46,0.00,,,0.00,,2013-01-11 01:43:00,
2013-01-10 19:52:00,37.0,19.0,-100.00,SE,130,9.0,17.0,47,0.00,,,0.00,,2013-01-11 01:52:00,
2013-01-10 20:02:00,36.0,19.0,-100.00,SE,135,9.0,17.0,50,0.00,,,0.00,,2013-01-11 02:02:00,
2013-01-10 20:12:00,36.0,21.0,-100.00,ESE,120,9.0,17.0,54,0.00,,,0.00,,2013-01-11 02:12:00,
2013-01-10 20:23:00,36.0,23.0,-100.00,SE,130,10.0,19.0,58,0.00,,,0.00,,2013-01-11 02:23:00,
2013-01-10 20:33:00,35.0,25.0,-100.00,SE,125,11.0,18.0,65,0.00,,,0.00,,2013-01-11 02:33:00,
2013-01-10 20:43:00,34.0,27.0,-100.00,ESE,120,10.0,18.0,73,0.00,,,0.00,,2013-01-11 02:43:00,
2013-01-10 20:53:00,34.0,28.0,-100.00,SE,130,12.0,19.0,80,0.00,,,0.00,,2013-01-11 02:53:00,
2013-01-10 21:02:00,33.0,28.0,-100.00,ESE,120,11.0,17.0,85,0.00,,,0.00,,2013-01-11 03:02:00,
2013-01-10 21:12:00,33.0,30.0,-100.00,SE,125,11.0,17.0,86,0.00,,,0.00,,2013-01-11 03:12:00,
2013-01-10 21:23:00,33.0,30.0,-100.00,SE,125,12.0,19.0,90,0.00,,,0.00,,2013-01-11 03:23:00,
2013-01-10 21:33:00,33.0,30.0,-100.00,ESE,120,12.0,17.0,91,0.00,,,0.00,,2013-01-11 03:33:00,
2013-01-10 21:42:00,33.0,30.0,-100.00,SE,130,9.0,18.0,92,0.00,,,0.00,,2013-01-11 03:42:00,
2013-01-10 21:52:00,33.0,30.0,-100.00,SE,145,9.0,16.0,94,0.00,,,0.00,,2013-01-11 03:52:00,
2013-01-10 22:02:00,33.0,32.0,-100.00,SE,145,9.0,19.0,94,0.00,,,0.00,,2013-01-11 04:02:00,
2013-01-10 22:12:00,33.0,32.0,-100.00,SE,140,9.0,15.0,95,0.00,,,0.00,,2013-01-11 04:12:00,
2013-01-10 22:22:00,33.0,32.0,-100.00,SE,135,7.0,13.0,95,0.00,,,0.00,,2013-01-11 04:22:00,
2013-01-10 22:33:00,33.0,32.0,-100.00,SSE,150,8.0,14.0,95,0.00,,,0.00,,2013-01-11 04:33:00,
2013-01-10 22:42:00,33.0,32.0,-100.00,SE,130,9.0,14.0,95,0.00,,,0.00,,2013-01-11 04:42:00,
2013-01-10 22:52:00,33.0,32.0,-100.00,SSE,155,7.0,14.0,96,0.00,,,0.00,,2013-01-11 04:52:00,
2013-01-10 23:03:00,33.0,32.0,-100.00,SE,145,7.0,14.0,96,0.00,,,0.00,,2013-01-11 05:03:00,
2013-01-10 23:12:00,33.0,32.0,-100.00,SSE,150,7.0,12.0,96,0.00,,,0.00,,2013-01-11 05:12:00,
2013-01-10 23:22:00,32.0,32.0,-100.00,SE,140,8.0,14.0,96,0.00,,,0.00,,2013-01-11 05:22:00,
2013-01-10 23:33:00,32.0,32.0,-100.00,SE,130,6.0,11.0,96,0.00,,,0.00,,2013-01-11 05:33:00,
2013-01-10 23:42:00,33.0,32.0,-100.00,SSE,155,6.0,12.0,96,0.00,,,0.00,,2013-01-11 05:42:00,
2013-01-10 23:52:00,32.0,32.0,-100.00,SE,130,6.0,10.0,96,0.00,,,0.00,,2013-01-11 05:52:00,